| time (UTC) | temp C | wind direction | speed KPH | gust KPH | rain 1hr cm | rain 24hr cm | rain mn cm | humidity % | barometer mb |
| 20260505171550 | 14 | 0 | 3.2 | 0.0 | 0.00 | 13.79 | 10.72 | 85 | |
| 20260505170520 | 13 | 0 | 1.6 | 0.0 | 0.00 | 13.79 | 10.72 | 89 | |
| 20260505165450 | 13 | 0 | 0.0 | 0.0 | 0.00 | 13.79 | 10.72 | 92 | |
| 20260505164420 | 12 | 0 | 3.2 | 0.0 | 0.00 | 13.79 | 10.72 | 93 | |
| 20260505163420 | 11 | 0 | 0.0 | 0.0 | 0.00 | 13.79 | 10.72 | 97 | |
| 20260505162420 | 11 | 0 | 6.4 | 0.0 | 0.00 | 13.79 | 10.72 | 96 | |
| 20260505161350 | 11 | 0 | 3.2 | 0.0 | 10.64 | 13.79 | 10.72 | 98 | |
| 20260505160320 | 11 | 0 | 3.2 | 0.0 | 10.64 | 13.79 | 10.72 | 99 | |
| 20260505153220 | 10 | 0 | 0.0 | 0.0 | 10.64 | 13.79 | 10.72 | 99 | |
| 20260505152220 | 10 | 0 | 1.6 | 0.0 | 10.64 | 13.79 | 10.72 | 99 | |
| 20260505151150 | 10 | 0 | 0.0 | 0.0 | 0.00 | 3.12 | 0.05 | 99 | |
| 20260505150120 | 10 | 0 | 0.0 | 0.0 | 0.00 | 3.12 | 0.05 | 99 | |
| 20260505124650 | 9 | 0 | 0.0 | 0.0 | 0.00 | 3.12 | 0.05 | 99 | |
| 20260505123620 | 9 | 0 | 0.0 | 0.0 | 0.00 | 3.12 | 0.05 | 99 | |
| 20260505122620 | 9 | 0 | 0.0 | 0.0 | 0.00 | 3.12 | 0.05 | 99 | |
| 20260505121550 | 9 | 0 | 0.0 | 0.0 | 0.00 | 3.12 | 0.05 | 99 | |
| 20260505120550 | 9 | 0 | 0.0 | 0.0 | 0.00 | 3.12 | 0.05 | 99 | |
| 20260505115520 | 9 | 0 | 0.0 | 0.0 | 0.00 | 3.12 | 0.05 | 99 | |
| 20260505114450 | 9 | 0 | 0.0 | 0.0 | 0.00 | 3.12 | 0.05 | 99 | |
| 20260505113450 | 9 | 0 | 0.0 | 0.0 | 0.00 | 3.12 | 0.05 | 99 | |
| 20260505112420 | 9 | 0 | 0.0 | 0.0 | 0.00 | 3.12 | 0.05 | 99 | |
| 20260505111350 | 9 | 0 | 0.0 | 0.0 | 0.00 | 3.12 | 0.05 | 99 | |
| 20260505110350 | 9 | 0 | 0.0 | 0.0 | 0.00 | 3.12 | 0.05 | 99 | |
| 20260505101250 | 9 | 0 | 0.0 | 0.0 | 0.00 | 3.12 | 0.05 | 99 | |
| 20260505100250 | 9 | 0 | 0.0 | 0.0 | 0.00 | 3.12 | 0.05 | 99 | |
| 20260505095220 | 9 | 0 | 0.0 | 0.0 | 0.00 | 3.12 | 0.05 | 99 | |
| 20260505094220 | 9 | 0 | 1.6 | 0.0 | 0.00 | 3.12 | 0.05 | 99 | |
| 20260505093150 | 9 | 0 | 3.2 | 0.0 | 0.00 | 3.12 | 0.05 | 99 | |
| 20260505092150 | 9 | 0 | 1.6 | 0.0 | 0.00 | 3.12 | 0.05 | 99 | |
| 20260505091120 | 9 | 0 | 0.0 | 0.0 | 0.00 | 3.12 | 0.05 | 99 | |
| 20260505090120 | 9 | 0 | 0.0 | 0.0 | 0.00 | 3.12 | 0.05 | 99 | |
| 20260505085050 | 9 | 0 | 0.0 | 0.0 | 0.00 | 3.12 | 0.05 | 99 | |
| 20260505084020 | 9 | 0 | 0.0 | 0.0 | 0.00 | 3.12 | 0.05 | 99 | |
| 20260505083020 | 9 | 0 | 0.0 | 0.0 | 0.00 | 3.12 | 0.05 | 99 | |
| 20260505081950 | 9 | 0 | 0.0 | 0.0 | 0.00 | 3.12 | 0.05 | 99 | |
| 20260505080920 | 9 | 0 | 0.0 | 0.0 | 0.03 | 3.12 | 0.05 | 99 | |
| 20260505075920 | 9 | 0 | 0.0 | 0.0 | 0.05 | 3.12 | 0.05 | 99 | |
| 20260505074850 | 9 | 0 | 0.0 | 0.0 | 0.05 | 3.12 | 0.05 | 99 | |
| 20260505073850 | 9 | 0 | 0.0 | 0.0 | 0.10 | 3.12 | 0.05 | 99 | |
| 20260505072850 | 9 | 0 | 0.0 | 0.0 | 0.10 | 3.12 | 0.05 | 99 | |
| 20260505071820 | 9 | 0 | 0.0 | 0.0 | 0.13 | 3.12 | 0.05 | 99 | |
| 20260505070820 | 9 | 0 | 0.0 | 0.0 | 0.08 | 3.07 | 0.00 | 99 | |
| 20260505065750 | 9 | 0 | 0.0 | 0.0 | 0.08 | 3.05 | 3.05 | 99 | |
| 20260505064720 | 9 | 0 | 0.0 | 0.0 | 0.08 | 3.05 | 3.05 | 99 | |
| 20260505063720 | 9 | 0 | 0.0 | 0.0 | 0.08 | 3.00 | 3.00 | 99 | |
| 20260505062720 | 9 | 0 | 0.0 | 0.0 | 0.15 | 3.00 | 3.00 | 99 | |
| 20260505061720 | 9 | 0 | 0.0 | 0.0 | 0.15 | 2.97 | 2.97 | 99 | |
| 20260505060650 | 9 | 0 | 0.0 | 0.0 | 0.15 | 2.97 | 2.97 | 99 | |
| 20260505055650 | 9 | 0 | 3.2 | 0.0 | 0.23 | 2.97 | 2.97 | 99 | |
| 20260505054650 | 9 | 0 | 0.0 | 0.0 | 0.25 | 2.97 | 2.97 | 99 | |
| 20260505053620 | 9 | 0 | 0.0 | 0.0 | 0.28 | 2.90 | 2.90 | 99 | |
| 20260505052550 | 9 | 0 | 0.0 | 0.0 | 0.23 | 2.84 | 2.84 | 99 | |
| 20260505051550 | 9 | 0 | 0.0 | 0.0 | 0.23 | 2.82 | 2.82 | 99 | |
| 20260505050550 | 9 | 0 | 0.0 | 0.0 | 0.30 | 2.82 | 2.82 | 99 | |
| 20260505041420 | 9 | 0 | 0.0 | 0.0 | 0.76 | 2.54 | 2.54 | 99 | |
| 20260505040350 | 9 | 0 | 0.0 | 0.0 | 0.74 | 2.44 | 2.44 | 99 | |
| 20260505035350 | 9 | 0 | 0.0 | 0.0 | 0.69 | 2.21 | 2.21 | 99 | |
| 20260505034350 | 9 | 0 | 0.0 | 0.0 | 0.61 | 2.06 | 2.06 | 99 | |
| 20260505033320 | 9 | 0 | 0.0 | 0.0 | 0.61 | 1.98 | 1.98 | 99 | |
| 20260505032320 | 9 | 0 | 0.0 | 0.0 | 0.58 | 1.91 | 1.91 | 99 | |
| 20260505031250 | 9 | 0 | 0.0 | 0.0 | 0.51 | 1.78 | 1.78 | 99 | |
| 20260505030220 | 9 | 0 | 0.0 | 0.0 | 0.46 | 1.68 | 1.68 | 99 | |
| 20260505025150 | 9 | 0 | 0.0 | 0.0 | 0.33 | 1.52 | 1.52 | 99 | |
| 20260505024150 | 9 | 0 | 3.2 | 0.0 | 0.30 | 1.45 | 1.45 | 99 | |
| 20260505023120 | 10 | 0 | 0.0 | 0.0 | 0.23 | 1.37 | 1.37 | 99 | |
| 20260505022120 | 10 | 0 | 0.0 | 0.0 | 0.23 | 1.30 | 1.30 | 99 | |
| 20260505021050 | 10 | 0 | 3.2 | 0.0 | 0.20 | 1.27 | 1.27 | 99 | |
| 20260505020050 | 10 | 0 | 1.6 | 0.0 | 0.15 | 1.22 | 1.22 | 99 | |
| 20260505015050 | 10 | 0 | 0.0 | 0.0 | 0.18 | 1.19 | 1.19 | 99 | |
| 20260505014050 | 10 | 0 | 4.8 | 0.0 | 0.15 | 1.14 | 1.14 | 99 | |
| 20260505013020 | 10 | 0 | 0.0 | 0.0 | 0.23 | 1.12 | 1.12 | 99 | |
| 20260505011950 | 10 | 0 | 3.2 | 0.0 | 0.23 | 1.07 | 1.07 | 99 | |
| 20260505010920 | 10 | 0 | 1.6 | 0.0 | 0.25 | 1.04 | 1.04 | 99 | |
| 20260505005920 | 10 | 0 | 3.2 | 0.0 | 0.25 | 1.04 | 1.04 | 99 | |
| 20260505004850 | 10 | 0 | 1.6 | 0.0 | 0.23 | 0.99 | 0.99 | 99 | |
| 20260505003820 | 10 | 0 | 1.6 | 0.0 | 0.15 | 0.91 | 0.91 | 99 | |
| 20260505002750 | 10 | 0 | 1.6 | 0.0 | 0.18 | 0.89 | 0.89 | 99 | |
| 20260505001750 | 10 | 0 | 1.6 | 0.0 | 0.15 | 0.81 | 0.81 | 99 | |
| 20260505000720 | 10 | 0 | 1.6 | 0.0 | 0.15 | 0.76 | 0.76 | 99 | |
| 20260504235720 | 10 | 0 | 0.0 | 0.0 | 0.18 | 0.76 | 0.76 | 99 | |
| 20260504234650 | 10 | 0 | 1.6 | 0.0 | 0.20 | 0.76 | 0.76 | 99 | |
| 20260504233620 | 10 | 0 | 1.6 | 0.0 | 0.23 | 0.74 | 0.74 | 99 | |
| 20260504232550 | 10 | 0 | 0.0 | 0.0 | 0.23 | 0.69 | 0.69 | 99 | |
| 20260504231520 | 10 | 0 | 3.2 | 0.0 | 0.23 | 0.61 | 0.61 | 99 | |
| 20260504230450 | 10 | 0 | 3.2 | 0.0 | 0.28 | 0.61 | 0.61 | 99 | |
| 20260504225420 | 10 | 0 | 3.2 | 0.0 | 0.28 | 0.58 | 0.58 | 99 | |
| 20260504224420 | 10 | 0 | 8.0 | 0.0 | 0.23 | 0.53 | 0.53 | 99 | |
| 20260504223350 | 10 | 0 | 3.2 | 0.0 | 0.23 | 0.46 | 0.46 | 99 | |
| 20260504222320 | 10 | 0 | 3.2 | 0.0 | 0.23 | 0.38 | 0.38 | 99 | |
| 20260504221320 | 11 | 0 | 1.6 | 0.0 | 0.23 | 0.36 | 0.36 | 99 | |
| 20260504220320 | 11 | 0 | 6.4 | 0.0 | 0.23 | 0.30 | 0.30 | 99 | |
| 20260504215250 | 11 | 0 | 3.2 | 0.0 | 0.20 | 0.30 | 0.30 | 99 | |
| 20260504214250 | 11 | 0 | 0.0 | 0.0 | 0.23 | 0.28 | 0.28 | 99 | |
| 20260504213220 | 11 | 0 | 3.2 | 0.0 | 0.15 | 0.23 | 0.23 | 99 | |
| 20260504212150 | 11 | 0 | 6.4 | 0.0 | 0.15 | 0.15 | 0.15 | 98 | |
| 20260504211120 | 11 | 0 | 0.0 | 0.0 | 0.13 | 0.13 | 0.13 | 98 | |
| 20260504210120 | 11 | 0 | 1.6 | 0.0 | 0.08 | 0.08 | 0.08 | 97 | |
| 20260504205050 | 11 | 0 | 1.6 | 0.0 | 0.08 | 0.08 | 0.08 | 96 | |
| 20260504204050 | 11 | 0 | 3.2 | 0.0 | 0.05 | 0.05 | 0.05 | 95 | |
| 20260504203050 | 11 | 0 | 4.8 | 0.0 | 0.00 | 0.00 | 0.00 | 95 | |
| 20260504202020 | 12 | 0 | 4.8 | 0.0 | 0.00 | 0.00 | 0.00 | 93 | |
| 20260504201020 | 12 | 0 | 3.2 | 0.0 | 0.00 | 0.00 | 0.00 | 91 | |
| 20260504195950 | 12 | 0 | 3.2 | 0.0 | 0.00 | 0.00 | 0.00 | 89 | |
| 20260504194920 | 12 | 0 | 4.8 | 0.0 | 0.00 | 0.00 | 0.00 | 90 | |
| 20260504193920 | 12 | 0 | 6.4 | 0.0 | 0.00 | 0.00 | 0.00 | 86 | |
| 20260504192850 | 12 | 0 | 4.8 | 0.0 | 0.00 | 0.00 | 0.00 | 84 | |
| 20260504191820 | 12 | 0 | 1.6 | 0.0 | 0.00 | 0.00 | 0.00 | 86 | |
| 20260504190750 | 12 | 0 | 0.0 | 0.0 | 0.00 | 0.00 | 0.00 | 87 | |
| 20260504185720 | 12 | 0 | 0.0 | 0.0 | 0.00 | 0.00 | 0.00 | 88 | |
| 20260504184650 | 12 | 0 | 6.4 | 0.0 | 0.00 | 0.00 | 0.00 | 89 | |
| 20260504183620 | 13 | 0 | 6.4 | 0.0 | 0.00 | 0.00 | 0.00 | 87 | |
| 20260504182550 | 14 | 0 | 3.2 | 0.0 | 0.00 | 0.00 | 0.00 | 83 | |
| 20260504181520 | 13 | 0 | 6.4 | 0.0 | 0.00 | 0.00 | 0.00 | 79 | |
| 20260504180520 | 13 | 0 | 3.2 | 0.0 | 0.00 | 0.00 | 0.00 | 79 | |
| 20260504175450 | 13 | 0 | 8.0 | 0.0 | 0.00 | 0.00 | 0.00 | 77 | |
| 20260504174420 | 14 | 0 | 1.6 | 0.0 | 0.00 | 0.00 | 0.00 | 77 | |
| 20260504173420 | 14 | 0 | 3.2 | 0.0 | 0.00 | 0.00 | 0.00 | 76 | |
| 20260504172350 | 14 | 0 | 0.0 | 0.0 | 0.00 | 0.00 | 0.00 | 77 |